Tracking 20621 objects as of 29-Mar-2020
HD Live streaming from Space Station
objects crossing your sky now

RADUGA 7

Track RADUGA 7 now!
RADUGA 7 is classified as:


NORAD ID: 12003
Int'l Code: 1980-081A
Perigee: 35,787.4 km
Apogee: 35,854.3 km
Inclination: 11.2 °
Period: 1,437.5 minutes
Semi major axis: 42191 km
RCS: 7.9432 m2 (large)
Launch date: October 5, 1980
Source: Commonwealth of Independent States (former USSR) (CIS)
Launch site: TYURATAM MISSILE AND SPACE COMPLEX (TTMTR)
aabbcc
Your satellite tracking list
Your tracking list is empty




NASA's NSSDC Master Catalog

Two Line Element Set (TLE):
1 12003U 80081A   20089.08536699  .00000077  00000-0  00000+0 0  9991
2 12003  11.1806 313.6114 0007923 265.1806 224.7728  1.00175112100644
Source of the keplerian elements: AFSPC